Zurück zum Katalog

STARLINK-37862

AktivKommunikationSSO
NORAD 69551·PAYLOAD·🇺🇸 United States

Gestartet Jun 15, 2026 von Vandenberg Space Force Base

Loading…

Nächste Überflüge (nächste 24 Stunden)

TLE

AktuellSource: CelesTrak SupGP

Epoche: Sep 15, 2026, 03:55 UTC

1 69551C 26135F   26258.16368056 -.00051796  00000+0 -16080-2 0  2585
2 69551  97.2835 285.8909 0001092  94.8120 134.7669 15.33463519    16

Verfolge STARLINK-37862 in Echtzeit mit AllMySat

Download on the App Store